Eau Claire, WI

6:56 AM CST on January 22, 2018 (GMT -0600)
Chippewa Valley Regional

Weather History for KEAU - October, 2012

Change the Weather History Date:

Saturday, October 13, 2012

  Actual Average Record
Temperature  
Mean Temperature 45 °F 48 °F  
Max Temperature 50 °F 59 °F 84 °F (1956)
Min Temperature 39 °F 38 °F 17 °F (1917)
Degree Days  
Heating Degree Days 20 17  
Month to date heating degree days 248 188  
Since 1 July heating degree days 489 421  
Cooling Degree Days 0 0  
Month to date cooling degree days 0 4  
Year to date cooling degree days 830 579  
Moisture  
Dew Point 43 °F    
Average Humidity 73    
Maximum Humidity 100    
Minimum Humidity 45    
Precipitation  
Precipitation 0.24 in 0.07 in 1.15 in (1986)
Month to date precipitation 0.35 1.15  
Year to date precipitation 20.52 26.95  
Snow  
Snow 0.00 in 0.10 in 1.00 in (1939)
Month to date snowfall T 0.1  
Since 1 July snowfall T 0.1  
Since 1 September snowfall T 0.1  
Snow Depth 0.00 in    
Sea Level Pressure  
Sea Level Pressure 29.82 in    
Wind  
Wind Speed 6 mph (East)    
Max Wind Speed 15 mph    
Max Gust Speed 21 mph    
Visibility 4 miles    
Events Rain    
T = Trace of Precipitation, MM = Missing Value Source: NWS Daily Summary

Daily Weather History Graph

Daily Weather History Graph

Search for Another Location

Airport or City:

Trip Planner

Search our weather history database for the weather conditions in past years. The results will help you decide how hot, cold, wet, or windy it might be!

Date:

Astronomy

Oct. 13, 2012 Rise Set
Actual Time 7:19 AM CDT 6:23 PM CDT
Civil Twilight 6:50 AM CDT 6:53 PM CDT
Nautical Twilight 6:16 AM CDT 7:27 PM CDT
Astronomical Twilight 5:42 AM CDT 8:00 PM CDT
Moon 5:05 AM CDT (10/13) 5:10 PM CDT (10/13)
Length of Visible Light 12h 03m
Length of Day
11h 04m
Waning Crescent, 5% of the Moon is Illuminated
Oct 13
Waning Crescent
Oct 15
New
Oct 21
First Quarter
Oct 29
Full
Nov 6
Last Quarter

Hourly Weather History & Observations

Time (CDT) Temp. Windchill Dew Point Humidity Pressure Visibility Wind Dir Wind Speed Gust Speed Precip Events Conditions
1:47 AM 42.8 °F 38.0 °F 30.2 °F 61% 30.07 in 9.0 mi South 8.1 mph - 0.00 in Rain Light Rain
2:24 AM 39.2 °F 33.0 °F 35.6 °F 87% 30.05 in 7.0 mi SSE 9.2 mph - 0.01 in Rain Light Rain
2:38 AM 39.2 °F 33.6 °F 35.6 °F 87% 30.04 in 7.0 mi SE 8.1 mph - 0.02 in Rain Light Rain
2:56 AM 39.9 °F 33.4 °F 37.0 °F 89% 30.04 in 10.0 mi SE 10.4 mph - 0.02 in   Overcast
3:19 AM 39.2 °F 34.2 °F 37.4 °F 93% 30.01 in 5.0 mi SE 6.9 mph - 0.01 in Rain Light Rain
3:41 AM 39.2 °F 35.0 °F 37.4 °F 93% 29.99 in 7.0 mi SE 5.8 mph - 0.01 in   Overcast
3:56 AM 39.9 °F 35.1 °F 37.9 °F 93% 30.00 in 4.0 mi SE 6.9 mph - 0.01 in Rain Light Rain
4:56 AM 41.0 °F 35.2 °F 39.0 °F 93% 29.97 in 4.0 mi SSE 9.2 mph - 0.00 in   Overcast
5:48 AM 41.0 °F 35.2 °F 39.2 °F 93% 29.92 in 4.0 mi SSE 9.2 mph - 0.01 in   Overcast
5:56 AM 42.1 °F 36.1 °F 39.9 °F 92% 29.94 in 4.0 mi SSE 10.4 mph - 0.01 in   Overcast
6:56 AM 42.1 °F 36.1 °F 39.9 °F 92% 29.90 in 6.0 mi SSE 10.4 mph - N/A   Overcast
7:56 AM 42.1 °F 38.4 °F 41.0 °F 96% 29.89 in 3.0 mi SE 5.8 mph - N/A   Overcast
8:19 AM 42.8 °F 38.6 °F 41.0 °F 93% 29.85 in 2.0 mi SE 6.9 mph - N/A   Overcast
8:52 AM 42.8 °F 40.1 °F 41.0 °F 93% 29.85 in 3.0 mi SE 4.6 mph - 0.01 in   Overcast
8:56 AM 43.0 °F 39.5 °F 42.1 °F 97% 29.87 in 4.0 mi SE 5.8 mph - 0.01 in   Overcast
9:56 AM 44.1 °F 39.5 °F 42.1 °F 93% 29.87 in 5.0 mi SE 8.1 mph - N/A   Overcast
10:24 AM 44.6 °F 40.7 °F 42.8 °F 93% 29.84 in 2.0 mi SE 6.9 mph - N/A   Overcast
10:34 AM 44.6 °F 42.2 °F 42.8 °F 93% 29.83 in 1.5 mi SE 4.6 mph - N/A   Overcast
10:56 AM 44.1 °F 40.1 °F 43.0 °F 96% 29.82 in 2.0 mi ESE 6.9 mph - N/A   Overcast
11:56 AM 46.0 °F 43.9 °F 45.0 °F 96% 29.80 in 7.0 mi SSE 4.6 mph - 0.02 in Rain Light Rain
12:56 PM 48.0 °F - 46.0 °F 93% 29.77 in 9.0 mi Calm Calm - 0.02 in Rain Light Rain
1:56 PM 48.0 °F - 46.9 °F 96% 29.74 in 4.0 mi ENE 4.6 mph - 0.04 in Rain Light Rain
2:42 PM 48.2 °F - 46.4 °F 93% 29.70 in 2.0 mi ENE 4.6 mph - 0.02 in Rain Light Rain
2:49 PM 48.2 °F - 46.4 °F 93% 29.70 in 1.8 mi NE 4.6 mph - 0.02 in Rain Light Rain
2:56 PM 48.0 °F - 46.9 °F 96% 29.72 in 2.0 mi ENE 4.6 mph - 0.03 in Rain Light Rain
3:52 PM 48.2 °F - 48.2 °F 100% 29.70 in 2.5 mi NNE 3.5 mph - 0.02 in Rain Light Rain
3:56 PM 48.9 °F - 48.0 °F 97% 29.71 in 2.0 mi NE 3.5 mph - 0.02 in Rain Light Rain
4:14 PM 48.2 °F - 48.2 °F 100% 29.70 in 5.0 mi NE 3.5 mph - 0.01 in Rain Light Rain
4:51 PM 48.2 °F - 48.2 °F 100% 29.70 in 3.0 mi Calm Calm - 0.03 in Rain Light Rain
4:56 PM 48.9 °F - 48.0 °F 97% 29.71 in 2.0 mi NE 3.5 mph - 0.03 in   Overcast
5:04 PM 48.2 °F - 48.2 °F 100% 29.69 in 1.5 mi ENE 4.6 mph - 0.01 in   Overcast
5:19 PM 48.2 °F - 48.2 °F 100% 29.69 in 2.5 mi NNE 3.5 mph - 0.01 in   Overcast
5:56 PM 48.9 °F - 48.0 °F 97% 29.72 in 4.0 mi NE 4.6 mph - 0.01 in   Overcast
6:12 PM 48.2 °F - 48.2 °F 100% 29.70 in 2.0 mi NE 4.6 mph - N/A   Overcast
6:34 PM 48.2 °F - 48.2 °F 100% 29.71 in 3.0 mi NNE 5.8 mph - N/A   Overcast
6:56 PM 48.9 °F - 48.0 °F 97% 29.73 in 4.0 mi NE 3.5 mph - 0.01 in   Overcast
9:36 PM 48.2 °F - 48.2 °F 100% 29.73 in 9.0 mi NNE 4.6 mph - N/A   Overcast
9:56 PM 48.9 °F - 48.0 °F 97% 29.73 in 6.0 mi NE 5.8 mph - N/A   Overcast
10:56 PM 48.9 °F - 48.0 °F 97% 29.75 in 10.0 mi North - - N/A   Overcast